STARLINK-5176 (54053 NORAD) Tracking and Keplerian Element Data

This shows tracking and keplerian element data for the satellite.

Feedback or suggestion? Click here.




ElementValue
Catalog54053
NameSTARLINK-5176
Epoch Orbit548
Epoch Day325.33334491
Epoch Year2022
RAAN352.7128
Inclination53.2171
Eccentricity0.0001503
Argument of Perigee61.2205
Mean Anonmoly99.6252
Mean Motion15.45424095
Decay Rate-0.01194765
L11 54053U 22136C 22325.33334491 -.01194765 00000+0 -26995-1 0 9991
L22 54053 53.2171 352.7128 0001503 61.2205 99.6252 15.45424095 5480



Live tracking and technical data element details for STARLINK-5176 (NORAD 54053). STARLINK-5176 can be tracked NOW for your location showing map with azimuth and elevation plus other details from your city location.







IsCatalogInMostPopularTable: catalog: 54053, numindb: 1
Update: records affected: 1



GetName: 54053 STARLINK-5176

Hit Count: updated at: Fri, 09 Dec 2022 19:22:48 GMT